Regional Weather Roundup
Issued by NWS

Home | Current Version | Previous Version | Graphics & Text | Print | Product List | Glossary On
Versions: 1 2 3 4 5 6 7 8 9 10 11 12 13 14 15 16 17 18 19 20 21 22 23 24 25 26 27 28 29 30 31 32 33 34 35 36 37 38 39 40 41 42 43 44 45 46 47 48 49 50
985
ASUS43 KOAX 210602
RWRNE

WEATHER ROUNDUP FOR NEBRASKA
NATIONAL WEATHER SERVICE OMAHA NE
1200 AM CST TUE FEB 21 2017

NOTES: SATELLITE DATA IS BEING USED TO AUGMENT CLOUD COVER ABOVE
       12000 FEET.
       "FAIR" INDICATES FEW OR NO CLOUDS BELOW 12,000 FEET WITH NO
       SIGNIFICANT WEATHER AND/OR OBSTRUCTIONS TO VISIBILITY.

  * THESE STATIONS DO NOT REPORT WEATHER SUCH AS RAIN...SNOW OR FOG.

NEZ001>004-019>022-054>056-210700-
NEBRASKA PANHANDLE

CITY           SKY/WX    TMP DP  RH WIND       PRES   REMARKS
SCOTTSBLUFF    CLEAR     47  21  35 CALM      29.94R
6HR MIN TEMP:  39; 6HR MAX TEMP:  61;

ALLIANCE       PTCLDY    38  26  62 S5        29.93R WCI  34
6HR MIN TEMP:  35; 6HR MAX TEMP:  57;

CHADRON        PTCLDY    47  29  49 SW10      29.87F
6HR MIN TEMP:  44; 6HR MAX TEMP:  59;

KIMBALL        CLOUDY    41  20  43 SW3       29.98F
SIDNEY         CLOUDY    34  19  54 MISG      29.97S
6HR MIN TEMP:  29; 6HR MAX TEMP:  58;

$$

NEZ057>060-069>072-079>082-210700-
SOUTHWEST NEBRASKA

CITY           SKY/WX    TMP DP  RH WIND       PRES   REMARKS
NORTH PLATTE   CLEAR     33  24  69 CALM      29.96S
6HR MIN TEMP:  32; 6HR MAX TEMP:  60;

IMPERIAL       CLOUDY    38  17  42 S3        29.99R
6HR MIN TEMP:  38; 6HR MAX TEMP:  58;

LEXINGTON      CLEAR     32  26  78 CALM      29.97S
MCCOOK         CLOUDY    35  22  58 W3        29.98F
6HR MIN TEMP:  32; 6HR MAX TEMP:  60;

OGALLALA       CLEAR     43  16  34 W5        29.96F
$$

NEZ005>010-023>029-035>040-094-210700-
NORTH CENTRAL NEBRASKA

CITY           SKY/WX    TMP DP  RH WIND       PRES   REMARKS
VALENTINE      CLEAR     39  24  55 CALM      29.87S
6HR MIN TEMP:  33; 6HR MAX TEMP:  57;

AINSWORTH      CLEAR     41  31  66 S10       29.90S
BROKEN BOW     CLEAR     30  26  85 CALM      29.95R
6HR MIN TEMP:  27; 6HR MAX TEMP:  58;

O`NEILL        CLEAR     37  31  78 S8        29.91S WCI  31
ORD            CLEAR     33  28  81 CALM      29.93S
6HR MIN TEMP:  30; 6HR MAX TEMP:  57;

THEDFORD       CLEAR     42  24  48 SW9       29.93S
$$

NEZ041-046>049-061>064-073>077-083>087-210700-
SOUTH CENTRAL NEBRASKA

CITY           SKY/WX    TMP DP  RH WIND       PRES   REMARKS
GRAND ISLAND   CLEAR     41  35  79 SW6       29.96F
6HR MIN TEMP:  37; 6HR MAX TEMP:  57;

AURORA         CLEAR     35  32  91 SW6       29.97R WCI  29
HASTINGS       CLEAR     39  31  72 CALM      29.97F
6HR MIN TEMP:  38; 6HR MAX TEMP:  57;

HEBRON         CLEAR     37  34  87 CALM      29.98R
HOLDREGE       CLEAR     41  29  61 SW7       29.97S
KEARNEY *      CLEAR     41  28  60 S3        29.96F
YORK           CLEAR     32  32 100 W7        29.97S WCI  26
$$

NEZ011>018-030>034-042>045-210700-
NORTHEAST NEBRASKA

CITY           SKY/WX    TMP DP  RH WIND       PRES   REMARKS
NORFOLK        CLEAR     36  33  89 CALM      29.93S
6HR MIN TEMP:  33; 6HR MAX TEMP:  53;

ALBION         CLEAR     33  30  88 CALM      29.95R
BLAIR          CLEAR     44  41  88 CALM      29.94R
FREMONT        CLEAR     37  37 100 CALM      29.95R
TEKAMAH        CLEAR     35  33  92 SE7       29.95R WCI  29
6HR MIN TEMP:  34; 6HR MAX TEMP:  54;

WAYNE          CLEAR     31  30  97 CALM      29.94R
$$

NEZ050>053-065>068-078-088>093-210700-
SOUTHEAST NEBRASKA

CITY           SKY/WX    TMP DP  RH WIND       PRES   REMARKS
LINCOLN        CLEAR     40  36  86 CALM      29.97R
6HR MIN TEMP:  34; 6HR MAX TEMP:  58;

OMAHA EPPLEY   CLEAR     39  35  86 CALM      29.95R
6HR MIN TEMP:  38; 6HR MAX TEMP:  56;

BEATRICE       CLEAR     35  34  97 CALM      29.96S
FALLS CITY     CLEAR     47  43  86 NW6       29.93S
6HR MIN TEMP:  47; 6HR MAX TEMP:  59;

NEBRASKA CITY  CLEAR     46  38  74 N7        29.94S
PLATTSMOUTH    CLEAR     45  39  78 CALM      29.94S
$$

NEZ044-045-051>053-067-210700-
OMAHA AREA

CITY           SKY/WX    TMP DP  RH WIND       PRES   REMARKS
OMAHA EPPLEY   CLEAR     39  35  86 CALM      29.95R
6HR MIN TEMP:  38; 6HR MAX TEMP:  56;

BLAIR          CLEAR     44  41  88 CALM      29.94R
FREMONT        CLEAR     37  37 100 CALM      29.95R
MILLARD        CLEAR     42  40  95 CALM      29.96R
PLATTSMOUTH    CLEAR     45  39  78 CALM      29.94S
WAHOO          FAIR      33  32  95 SE6       29.95R WCI  28
$$




USA.gov is the U.S. government's official web portal to all federal, state and local government web resources and services.